[Date Prev][Date Next][Thread Prev][Thread Next] - [Date Index][Thread Index][Author Index]

2 Line ISS Keps 6-10



ISS
1 25544U 98067A   05161.11184028  .00017473  00000-0  13136-3 0  6589
2 25544 051.6459 297.1678 0004334 228.5741 125.8877 15.72664548374566
----
Via the sarex mailing list at AMSAT.ORG courtesy of AMSAT-NA.
To unsubscribe, send "unsubscribe sarex" to Majordomo@amsat.org



AMSAT Top AMSAT Home